Regional Weather Roundup
Issued by NWS Cleveland, OH

Home | Current Version | Previous Version | Graphics & Text | Print | Product List | Glossary On
Versions: 1 2 3 4 5 6 7 8 9 10 11 12 13 14 15 16 17 18 19 20 21 22 23 24 25 26 27 28 29 30 31 32 33 34 35 36 37 38 39 40 41 42 43 44 45 46 47 48 49 50
000
ASUS41 KCLE 060610
RWRCLE
OHIO REGIONAL WEATHER ROUNDUP
NATIONAL WEATHER SERVICE CLEVELAND, OH
200 AM EDT MON JUL 06 2015

NOTE: "FAIR" INDICATES FEW OR NO CLOUDS BELOW 12,000 FEET WITH NO
SIGNIFICANT WEATHER AND/OR OBSTRUCTIONS TO VISIBILITY.

OHZ001>008-015>018-024>027-034-035-043-044-060700-
   NORTHWEST OHIO

CITY           SKY/WX    TMP DP  RH WIND       PRES   REMARKS
DEFIANCE       CLEAR     62  59  90 CALM      30.06F FOG
FINDLAY        MOCLDY    65  61  87 CALM      30.06F
TOLEDO EXPRESS CLEAR     58  57  97 CALM      30.06F
TOLEDO EXEC    PTCLDY    63  59  87 E5        30.07F
LIMA           PTCLDY    62  59  90 SE5       30.07F
$$

OHZ009>014-019>023-028>033-038-089-060700-
   NORTHEAST OHIO

CITY           SKY/WX    TMP DP  RH WIND       PRES   REMARKS
CLE-HOPKINS    MOCLDY    64  61  90 CALM      30.10S
CLE-LAKEFRONT  PTCLDY    69  61  75 CALM      30.06F
CUY CO. ARPT   NOT AVBL
LORAIN-ELYRIA  PTCLDY    60  58  92 S3        30.09S FOG
ASHTABULA      CLOUDY    61  59  93 CALM      30.09F FOG
AKRON-CANTON   MOCLDY    70  56  61 E5        30.07F
WOOSTER        PTCLDY    61  59  93 NW6       30.08F
MANSFIELD      PTCLDY    61  59  93 CALM      30.09F
YOUNGSTOWN     CLOUDY    65  59  81 E6        30.08F
$$

OHZ042-051>053-060>062-070>072-077>081-060700-
  SOUTHWEST OHIO

CITY           SKY/WX    TMP DP  RH WIND       PRES   REMARKS
CINC-COVINGTON MOCLDY    66  62  87 W5        30.06F
CINC-LUNKEN    MOCLDY    66  65  96 CALM      30.06F
HAMILTON       PTCLDY    63  62  97 CALM      30.07F FOG
DAYTON         PTCLDY    65  61  87 CALM      30.08F
WRIGHT-PAT AFB CLEAR     63  62  96 CALM      30.06F
DAYTON GENERAL PTCLDY    65  60  84 CALM      30.06F
WILMINGTON     PTCLDY    66  61  84 CALM      30.06F
$$

OHZ036-037-039>041-045>050-054>059-063>069-073>076-082>088-060700-
  CENTRAL AND SOUTHEAST OHIO

CITY           SKY/WX    TMP DP  RH WIND       PRES   REMARKS
COLUMBUS       PTCLDY    67  62  84 N3        30.05F
OSU AIRPORT    PTCLDY    64  61  90 CALM      30.06F
BOLTON FIELD   PTCLDY    64  62  94 CALM      30.06F
RICKENBACK AFB PTCLDY    66  63  90 NW3       30.04F
NEWARK         MOCLDY    65  63  93 CALM      30.05F
MARION         PTCLDY    62  60  93 CALM      30.07F
LANCASTER      PTCLDY    65  63  93 CALM      30.05F
ZANESVILLE     NOT AVBL
NEW PHILLY     MOCLDY    65  63  93 CALM      30.06F
$$


USA.gov is the U.S. government's official web portal to all federal, state and local government web resources and services.